www.pogodaiklimat.ru

Погода и климат >> Архив погоды >> Беларусь >> Бобруйск


АРХИВ ПОГОДЫ в Бобруйске

Время (UTC), дата Ветер
(напр.,м/с)
 
Видим.   Явления Облачность Т
(С)
Тd
(С)
f
(%)
Тe
(С)
Тes
(С)
Комфортность P
(гПа)
Po
(гПа)
Тmin
(С)
Tmax
(С)
R
(мм)
R24
(мм)
S
(см)
09 13.09 СЗ 2 20 км 9/0
[Ac trans]
+19.8 +13.9 69 +22 +26 комфорт 1018.8 1000.5
12 13.09 С 2 20 км 9/0
[Ac trans]
+20.7 +13.9 65 +24 +27 комфорт 1018.8 1000.6
15 13.09 С 1 20 км 8/0
[Ac trans]
+20.9 +14.1 65 +25 +25 комфорт 1017.9 999.7
18 13.09 С 1 12 км 8/0
[Ac trans]
+15.9 +12.3 79 +17 +17 тепло 1018.3 999.8 +22.1
21 13.09 штиль 0 10 км туман поземный 3/0
[Ac trans]
+11.8 +11.3 97 +11 +11 по сезону 1018.4 999.6
00 14.09 СВ 1 10 км туман поземный ясно +12.7 +11.8 94 +13 +13 тепло 1018.4 999.6
03 14.09 СВ 1 10 км 3/0
[Ci fib]
+10.9 +9.8 93 +10 +10 по сезону 1018.3 999.4
06 14.09 СВ 2 16 км 3/0
[Ci fib]
+13.3 +10.3 82 +13 +15 тепло 1018.5 999.8 +9.5
09 14.09 СВ 2 20 км 8/0
[Ac trans Ci fib]
+19.7 +12.9 65 +22 +27 комфорт 1018.5 1000.2
12 14.09 СВ 2 20 км 8/3 600 м
[Cu hum Ac trans Ci fib]
+22.4 +14.0 59 +26 +29 жарко 1017.6 999.5
15 14.09 С 2 20 км 9/0
[Ac trans]
+20.3 +12.8 62 +23 +23 комфорт 1017.7 999.4
18 14.09 С 3 10 км в посл. час ливневой дождь 9/4 300 м
[Cb calv Ac und]
+15.7 +11.1 74 +15 +15 тепло 1019.1 1000.6 +22.5 0.0
21 14.09 С 2 10 км 9/0
[Ac und]
+13.6 +9.3 75 +13 +13 тепло 1019.6 1000.9
00 15.09 СВ 2 10 км 9/0
[Ac und]
+12.9 +9.9 82 +12 +12 тепло 1019.1 1000.3
03 15.09 В 2 10 км 9/0
[Ac und]
+13.4 +10.6 83 +13 +13 тепло 1018.3 999.6
06 15.09 В 3 10 км {ливн. осадки} 9/6 800 м
[Cb calv Ac und]
+14.3 +9.9 75 +13 +14 тепло 1017.9 999.3 +12.9 0.0
09 15.09 В 2 15 км 9/4 300 м
[Cb calv Ac trans]
+16.1 +12.6 80 +16 +18 тепло 1016.9 998.4
12 15.09 штиль 0 8000 м слабый ливневой дождь 9/8 450 м
[Cb calv Ac trans]
+17.4 +15.9 91 +17 +19 тепло 1015.7 997.4
15 15.09 штиль 0 7000 м дымка {ливн. осадки} 10/10 480 м
[Cb calv]
+17.5 +16.7 95 +17 +17 тепло 1014.2 995.9
18 15.09 СЗ 4 4500 м дымка {ливн. осадки} 10/10 240 м
[Sc]
+13.4 +13.1 98 +12 +12 тепло 1016.0 997.4 +18.2 2
21 15.09 СЗ 3 8000 м дымка 10/10 270 м
[Sc]
+13.0 +12.4 96 +12 +12 тепло 1016.7 998.0
00 16.09 СЗ 2 8000 м дымка 6/0
[Ac trans]
+11.6 +10.8 95 +10 +10 тепло 1017.3 998.4
03 16.09 З 2 6000 м в посл. час ливневой дождь 10/10 240 м
[Cb calv]
+11.5 +11.2 98 +10 +10 по сезону 1017.3 998.4
06 16.09 З 2 8000 м дымка {ливн. осадки} 8/0
[Ac trans Ci fib]
+13.0 +12.5 97 +12 +13 тепло 1017.7 999.0 +11.2 0.1
09 16.09 СЗ 5 20 км 5/5 600 м
[Cu med, cong]
+15.8 +9.9 68 +15 +17 тепло 1018.7 1000.2
12 16.09 СЗ 6-10
{11}
20 км 5/5 600 м
[Cu med, cong]
+17.0 +6.8 51 +16 +17 по сезону 1019.1 1000.6
15 16.09 СЗ 7-10
{12}
20 км 3/3 600 м
[Cu hum]
+16.5 +4.5 45 +15 +15 тепло 1020.0 1001.5
18 16.09 ЮЗ 2
{10}
15 км ясно +9.9 +6.2 78 +8 +8 по сезону 1022.1 1003.0 +18.3
21 16.09 З 2 10 км ясно +7.5 +5.8 89 +5 +5 прохладно 1023.0 1003.8
00 17.09 штиль 0 10 км ясно +3.8 +2.8 93 +3 +3 прохладно 1023.8 1004.3
03 17.09 штиль 0 10 км туман поземный ясно +3.1 +2.8 98 +2 +2 холодно 1024.3 1004.7
06 17.09 З 2 10 км ясно +7.9 +6.5 91 +6 +8 по сезону 1024.8 1005.6 +2.5
09 17.09 З 3 20 км ясно +17.0 +7.6 54 +17 +23 тепло 1023.8 1005.2
12 17.09 З 4 20 км 5/5 600 м
[Cu hum]
+17.7 +6.8 49 +17 +20 тепло 1022.6 1004.0
15 17.09 ЮЗ 2 20 км 3/1 600 м
[Cu hum Ci fib]
+18.4 +7.8 50 +19 +20 тепло 1021.2 1002.7
18 17.09 штиль 0 10 км ясно +10.7 +8.6 87 +10 +10 по сезону 1021.6 1002.6 +19.7
21 17.09 ЮЗ 1 10 км ясно +10.9 +8.3 84 +11 +11 тепло 1021.0 1002.1
00 18.09 ЮЗ 1 10 км ясно +10.7 +8.1 84 +10 +10 тепло 1020.6 1001.7
03 18.09 ЮЗ 2 10 км ясно +11.0 +8.7 86 +10 +10 по сезону 1020.4 1001.5
06 18.09 З 3 10 км 9/0
[Ac und]
+12.8 +10.0 83 +11 +12 тепло 1021.1 1002.3 +9.7
09 18.09 З 3 20 км 8/0
[Ac trans Ci fib]
+18.5 +11.8 65 +19 +24 тепло 1021.1 1002.6
12 18.09 З 4 20 км 8/0
[Ac trans Ci fib]
+22.3 +10.4 47 +24 +27 комфорт 1020.0 1001.9
15 18.09 З 3 20 км 8/0
[Ac trans Ci fib]
+21.3 +10.8 51 +23 +23 комфорт 1019.5 1001.3
18 18.09 З 1 10 км ясно +14.1 +11.4 84 +14 +14 тепло 1020.7 1002.1 +23.2
21 18.09 штиль 0 8000 м дымка ясно +9.9 +9.1 95 +9 +9 по сезону 1020.9 1002.0
00 19.09 штиль 0 8000 м дымка ясно +8.5 +8.2 98 +7 +7 по сезону 1021.1 1002.1
03 19.09 штиль 0 6000 м дымка ясно +7.7 +7.4 98 +7 +7 по сезону 1021.5 1002.4
06 19.09 штиль 0 8000 м дымка ясно +13.7 +12.9 95 +13 +16 тепло 1021.1 1002.4 +7.1
09 19.09 ЮЗ 3 20 км ясно +22.9 +15.2 62 +27 +33 душно 1020.0 1001.9
12 19.09 ЮЗ 4 20 км 5/4 600 м
[Cu med, cong Ci fib]
+24.9 +14.1 51 +27 +30 жарко 1019.0 1001.0
15 19.09 ЮЗ 2 20 км ясно +24.2 +13.4 51 +26 +27 жарко 1018.2 1000.2
18 19.09 штиль 0 12 км ясно +15.2 +12.5 84 +15 +15 тепло 1018.8 1000.2 +25.4
21 19.09 ЮЗ 2 10 км ясно +16.0 +12.4 79 +16 +16 тепло 1018.4 999.9
00 20.09 штиль 0 10 км ясно +13.5 +12.2 92 +13 +13 тепло 1019.1 1000.4
03 20.09 С 1 10 км туман поземный ясно +11.7 +11.4 98 +11 +11 тепло 1019.5 1000.7
06 20.09 З 1 15 км ясно +15.9 +14.1 89 +17 +19 тепло 1019.5 1001.0 +10.3

 

Местоположение метеостанции Бобруйск (Могилевская область, Беларусь): широта 53.21 долгота 29.13 высота над уровнем моря 156 м.

В архиве по умолчанию представлена погода в Бобруйске за последнюю неделю. Архивные данные за месяц целиком и за предыдущие месяцы, начиная с января 2011 года, Вы можете получить, выбрав интересующий диапазон дат из раскрывающегося списка и нажав кнопку "Ввод!".


*Определитесь, кто Вы:
робот инопланетянин человек

Внимание! Время в таблицах - всемирное. Для получения местного времени необходимо прибавить поправку, которая в Бобруйске равна 3 ч.

Смотрите также архив погоды в соседних городах и на ближайших метеорологических станциях:

Погода в Кличеве (Могилевская область, Беларусь) (35 км)
Погода в Октябре (Гомельская область, Беларусь) (67 км)
Погода в Жлобине (Гомельская область, Беларусь) (69 км)
Погода в Березино (Минская область, Беларусь) (70 км)
Погода в Марьиной Горке (Минская область, Беларусь) (72 км)
Погода в Могилеве (Могилевская область, Беларусь) (104 км)
Погода в Слуцке (Минская область, Беларусь) (107 км)
Погода в Могилев городе (Могилевская область, Беларусь) (110 км)
Погода в Василевичах (Гомельская область, Беларусь) (117 км)
Погода в Борисове (Минская область, Беларусь) (125 км)

Пояснения к столбцам:

Ветер - указаны скорость ветра в м/с - средняя за 10 мин, порывы в срок и между сроками (в фигурных скобках) и направление, откуда дует ветер: С - северный, СВ - северо-восточный, В - восточный, ЮВ - юго-восточный, Ю - южный, ЮЗ - юго-западный, З - западный, СЗ - северо-западный.
Видимость - горизонтальная дальность видимости в метрах или километрах. При видимости от 1 до 10 км при отсутствии осадков обычно наблюдается дымка, при ухудшении видимости до 1 км и менее - туман. В сухую погоду видимость может ухудшаться дымом, пылью или мглою.
Явления - указаны атмосферные явления, наблюдавшиеся в срок или в последний час перед сроком; фигурными скобками обозначены явления, наблюдавшиеся между сроками (за 1-3 часа до срока); квадратными скобками обозначены град или гололедные отложения с указанием их диаметра в мм.
Облачность - указаны через наклонную черту общая и нижняя облачность в баллах и высота нижней границы облаков в метрах; квадратными скобками обозначены формы облаков: Ci - перистые, Cs - перисто-слоистые, Cc - перисто-кучевые, Ac - высококучевые, As - высокослоистые, Sc - слоисто-кучевые, Ns - слоисто-дождевые, Cu - кучевые, Cb - кучево-дождевые. Подробнее классификацию облаков см. в Атласе облаков (PDF).
T - Температура воздуха - температура, измеренная на высоте 2 м над землей.
Td - Температура точки росы - температура, при понижении до которой содержащийся в воздухе водяной пар достигнет насыщения.
f - Относительная влажность воздуха - влажноcть воздуха, измеренная на высоте 2 м над землей.
Te - Эффективная температура - температура, которую ощущает одетый по сезону человек в тени. Характеристика душности погоды. При расчете учитывается влияние влажности воздуха и скорости ветра на теплоощущения человека.
Tes - Эффективная температура на солнце - температура, которую ощущает человек, с поправкой на солнечный нагрев. Характеристика знойности погоды. Зависит от высоты солнца над горизонтом, облачности и скорости ветра. Ночью, в пасмурную погоду, а также при ветре 12 м/с и более поправка равна нулю.
P - Атмосферное давление - приведенное к уровню моря атмосферное давление.
Po - Атмосферное давление - измеренное на уровне метеостанции атмосферное давление.
Tmin - Минимальная температура - минимум температуры воздуха на высоте 2 м над землей.
Tmax - Максимальная температура - максимум температуры воздуха на высоте 2 м над землей.
R - Количество осадков - Количество выпавших осадков за период времени, мм. При наведении курсора мыши на число - период времени, за который выпало указанное количество осадков.
R24 - Количество осадков - Количество выпавших осадков за 24 часа, мм.
S - Снежный покров - Высота снежного покрова, см. При наведении курсора мыши на число - состояние снежного покрова и степень покрытия местности в баллах.